EW9733 Weather Reports


Display with metric or nautical units.
time (UTC)temp
F
wind
direction
speed
MPH
gust
MPH
rain 1hr
in
rain 24hr
in
rain mn
in
humidity
%
barometer
mb
20260906173012 67 32 0.0 5.0 0.00 0.09 0.09 69 1013.8
20260906171511 66 17 0.0 5.0 0.00 0.09 0.09 70 1013.7
20260906170012 68 42 2.0 7.0 0.00 0.09 0.09 67 1013.9
20260906164508 67 12 0.0 9.0 0.00 0.09 0.09 67 1013.9
20260906163008 67 67 0.0 6.0 0.00 0.09 0.09 70 1014.0
20260906161509 68 99 2.0 9.0 0.00 0.09 0.09 69 1014.3
20260906160015 66 44 1.0 9.0 0.00 0.09 0.09 70 1014.2
20260906154504 66 325 0.0 11.0 0.00 0.09 0.09 71 1014.3
20260906153003 66 51 1.0 8.0 0.00 0.09 0.09 70 1014.3
20260906151606 66 70 0.0 5.0 0.00 0.09 0.09 80 1014.4
20260906150059 65 43 4.0 10.0 0.00 0.09 0.09 76 1014.6
20260906144611 65 46 2.0 7.0 0.00 0.09 0.09 77 1014.4
20260906143110 65 21 1.0 8.0 0.00 0.09 0.09 78 1014.2
20260906141554 64 343 1.0 6.0 0.00 0.09 0.09 82 1014.2
20260906140048 63 37 0.0 11.0 0.00 0.09 0.09 86 1014.1
20260906134550 63 42 3.0 8.0 0.00 0.09 0.09 88 1014.1
20260906133046 63 26 0.0 9.0 0.00 0.09 0.09 90 1014.1
20260906131548 62 51 1.0 6.0 0.00 0.09 0.09 92 1014.1
20260906130044 62 255 0.0 8.0 0.00 0.09 0.09 92 1014.0
20260906124537 62 63 0.0 3.0 0.00 0.10 0.09 93 1013.8
20260906123036 62 360 0.0 1.0 0.00 0.10 0.09 94 1013.7
20260906121531 61 360 0.0 1.0 0.00 0.10 0.09 93 1013.7
20260906120030 60 49 0.0 0.0 0.00 0.10 0.09 93 1013.6
20260906114532 59 49 0.0 0.0 0.01 0.10 0.09 93 1013.4
20260906113038 59 49 0.0 0.0 0.02 0.10 0.09 93 1013.2
20260906111522 58 49 0.0 0.0 0.02 0.10 0.09 92 1013.1
20260906110018 58 49 0.0 0.0 0.02 0.10 0.09 92 1012.9
20260906104514 58 49 0.0 0.0 0.03 0.09 0.08 92 1012.8
20260906103012 59 49 0.0 0.0 0.02 0.08 0.07 92 1012.7
20260906101511 59 49 0.0 0.0 0.02 0.08 0.07 91 1012.8
20260906100010 59 49 0.0 0.0 0.02 0.08 0.07 91 1012.7
20260906094515 59 49 0.0 0.0 0.02 0.06 0.05 91 1012.0
20260906093006 59 42 0.0 2.0 0.03 0.06 0.05 91 1012.3
20260906091512 59 42 0.0 0.0 0.04 0.06 0.05 91 1012.4
20260906090003 59 42 0.0 3.0 0.05 0.06 0.05 91 1012.2
20260906084508 60 43 0.0 2.0 0.03 0.04 0.03 91 1012.0
20260906083100 60 43 0.0 0.0 0.02 0.03 0.02 91 1011.9
20260906081600 60 43 0.0 2.0 0.01 0.02 0.01 91 1011.8
20260906080058 60 42 0.0 2.0 0.00 0.01 0.00 91 1011.8
20260906074557 60 46 0.0 3.0 0.00 0.01 0.00 91 1011.5
20260906073056 60 47 0.0 2.0 0.00 0.01 0.00 91 1011.5
20260906071605 60 47 0.0 0.0 0.00 0.01 0.00 91 1011.6
20260906070055 59 47 0.0 0.0 0.00 0.01 0.00 91 1011.6
20260906064555 59 47 0.0 0.0 0.00 0.01 0.00 90 1011.5
20260906063051 59 47 0.0 0.0 0.00 0.01 0.00 90 1011.4
20260906061551 59 47 0.0 0.0 0.00 0.01 0.00 90 1011.5
20260906060050 59 47 0.0 0.0 0.00 0.01 0.00 89 1011.5
20260906054551 59 47 0.0 0.0 0.00 0.01 0.00 89 1011.5
20260906053047 59 47 0.0 0.0 0.00 0.01 0.00 89 1011.5
20260906051552 59 47 0.0 0.0 0.00 0.01 0.00 88 1011.7
20260906050109 60 47 0.0 0.0 0.00 0.01 0.00 88 1011.8
20260906044545 60 47 0.0 0.0 0.00 0.01 0.00 88 1011.8
20260906043041 60 47 0.0 0.0 0.00 0.01 0.00 87 1011.6
20260906041539 60 47 0.0 0.0 0.00 0.01 0.00 87 1011.6
20260906040044 61 47 0.0 0.0 0.00 0.01 0.00 87 1011.5
20260906034542 61 47 0.0 0.0 0.00 0.01 0.01 87 1011.3
20260906033036 61 47 0.0 0.0 0.00 0.01 0.01 87 1011.3
20260906031541 62 47 0.0 0.0 0.00 0.01 0.01 86 1011.2
20260906030036 62 47 0.0 0.0 0.00 0.01 0.01 86 1011.3
20260906024537 62 47 0.0 0.0 0.00 0.01 0.01 86 1011.4
20260906023038 62 47 0.0 0.0 0.00 0.01 0.01 85 1011.4
20260906021532 63 47 0.0 0.0 0.00 0.01 0.01 85 1011.3
20260906020032 63 47 0.0 0.0 0.00 0.01 0.01 85 1011.2
20260906014534 63 47 0.0 0.0 0.00 0.01 0.01 84 1011.4
20260906013032 63 47 0.0 0.0 0.00 0.01 0.01 84 1011.5
20260906011533 63 47 0.0 0.0 0.00 0.01 0.01 83 1011.3
20260906010030 63 47 0.0 0.0 0.00 0.01 0.01 83 1011.3
20260906004531 64 47 0.0 0.0 0.00 0.01 0.01 82 1011.2
20260906003026 64 47 0.0 0.0 0.00 0.01 0.01 82 1011.0
20260906001525 64 47 0.0 0.0 0.00 0.01 0.01 81 1010.9
20260906000029 64 47 0.0 0.0 0.00 0.01 0.01 81 1010.9
20260905234523 65 47 0.0 0.0 0.00 0.01 0.01 80 1010.8
20260905233027 65 47 0.0 0.0 0.00 0.01 0.01 79 1010.7
20260905231521 65 47 0.0 0.0 0.00 0.01 0.01 78 1010.7
20260905230020 66 47 0.0 1.0 0.00 0.01 0.01 78 1010.6
20260905224520 66 47 0.0 2.0 0.00 0.01 0.01 77 1010.6
20260905223020 66 47 0.0 3.0 0.00 0.01 0.01 77 1010.5
20260905221517 66 44 0.0 4.0 0.00 0.01 0.01 76 1010.5
20260905220016 67 24 2.0 5.0 0.00 0.01 0.01 75 1010.3
20260905214515 67 152 2.0 8.0 0.00 0.01 0.01 73 1010.1
20260905213013 68 80 1.0 9.0 0.00 0.01 0.01 72 1010.0
20260905211512 68 95 1.0 7.0 0.00 0.01 0.01 73 1009.9
20260905210011 68 61 1.0 13.0 0.00 0.01 0.01 73 1010.0
20260905204512 68 72 0.0 6.0 0.00 0.01 0.01 76 1009.8
20260905203009 68 172 2.0 14.0 0.00 0.01 0.01 75 1009.8
20260905201508 69 170 3.0 9.0 0.00 0.01 0.01 73 1009.6
20260905200009 69 28 2.0 11.0 0.00 0.01 0.01 75 1009.3
20260905194509 69 185 5.0 14.0 0.00 0.01 0.01 74 1009.2
20260905193011 69 42 3.0 14.0 0.00 0.01 0.01 74 1009.4
20260905191506 69 52 1.0 10.0 0.00 0.01 0.01 77 1009.4
20260905190012 68 40 1.0 5.0 0.00 0.01 0.01 78 1009.4
20260905184508 67 17 2.0 10.0 0.00 0.01 0.01 77 1009.6
20260905183003 68 25 5.0 13.0 0.00 0.01 0.01 77 1009.6
20260905181510 69 28 2.0 12.0 0.00 0.01 0.01 77 1009.7
20260905180004 68 71 1.0 11.0 0.00 0.01 0.01 79 1009.6
20260905174504 69 28 3.0 11.0 0.00 0.01 0.01 79 1009.4